Weather History for Altus, OK

Change the Weather History Date:

Thursday, December 13, 2012

  Actual Average (KLTS) Record (KLTS)
Temperature  
Mean Temperature 48 °F -  
Max Temperature 64 °F 52 °F 69 °F (1996)
Min Temperature 32 °F 27 °F 19 °F (1997)
Degree Days  
Heating Degree Days 17    
Moisture  
Dew Point 25 °F    
Average Humidity 48    
Maximum Humidity 69    
Minimum Humidity 24    
Precipitation  
Precipitation 0.00 in - - ()
Sea Level Pressure  
Sea Level Pressure 30.13 in    
Wind  
Wind Speed 11 mph (SE)    
Max Wind Speed 18 mph    
Max Gust Speed 23 mph    
Visibility 10 miles    
Events      
Averages and records for this station are not official NWS values.
T = Trace of Precipitation, MM = Missing Value Source: NWS Daily Summary

Daily Weather History Graph

Daily Weather History Graph

Search for Another Location

Airport:

Trip Planner

Search our weather history database for the weather conditions in past years. The results will help you decide how hot, cold, wet, or windy it might be!

Date:

Astronomy

Dec. 13, 2012 Rise Set
Actual Time 7:36 AM CST 5:27 PM CST
Civil Twilight 7:08 AM CST 5:55 PM CST
Nautical Twilight 6:36 AM CST 6:26 PM CST
Astronomical Twilight 6:05 AM CST 6:57 PM CST
Moon 7:47 AM CST (12/13) 6:10 PM CST (12/13)
Length of Visible Light 10h 47m
Length of Day
9h 51m
New Moon, 0% of the Moon is Illuminated
Dec 13
New Moon
Dec 19
First Quarter
Dec 28
Full
Jan 4
Last Quarter
Jan 11
New

Hourly Weather History & Observations

Time (CST) Temp. Windchill Dew Point Humidity Pressure Visibility Wind Dir Wind Speed Gust Speed Precip Events Conditions
12:15 AM 37.4 °F 30.8 °F 19.4 °F 48% 30.14 in 10.0 mi SE 9.2 mph - N/A   Clear
12:35 AM 35.6 °F 28.6 °F 19.4 °F 52% 30.14 in 10.0 mi SE 9.2 mph - N/A   Clear
12:55 AM 35.6 °F 29.9 °F 19.4 °F 52% 30.14 in 10.0 mi ESE 6.9 mph - N/A   Clear
1:15 AM 35.6 °F 28.6 °F 19.4 °F 52% 30.14 in 10.0 mi ESE 9.2 mph - N/A   Clear
1:55 AM 33.8 °F 25.8 °F 19.4 °F 56% 30.14 in 10.0 mi ESE 10.4 mph - N/A   Clear
2:15 AM 33.8 °F 25.8 °F 19.4 °F 56% 30.14 in 10.0 mi ESE 10.4 mph - N/A   Clear
2:35 AM 33.8 °F 26.4 °F 21.2 °F 60% 30.14 in 10.0 mi ESE 9.2 mph - N/A   Clear
2:55 AM 33.8 °F 25.8 °F 21.2 °F 60% 30.14 in 10.0 mi ESE 10.4 mph - N/A   Clear
3:15 AM 33.8 °F 26.4 °F 21.2 °F 60% 30.14 in 10.0 mi ESE 9.2 mph - N/A   Clear
3:35 AM 33.8 °F 27.0 °F 21.2 °F 60% 30.14 in 10.0 mi SE 8.1 mph - N/A   Clear
3:55 AM 33.8 °F 24.8 °F 21.2 °F 60% 30.13 in 10.0 mi SE 12.7 mph - N/A   Clear
4:15 AM 33.8 °F 25.3 °F 21.2 °F 60% 30.13 in 10.0 mi SE 11.5 mph - N/A   Clear
4:35 AM 33.8 °F 24.8 °F 21.2 °F 60% 30.12 in 10.0 mi SE 12.7 mph - N/A   Clear
4:55 AM 33.8 °F 24.8 °F 21.2 °F 60% 30.13 in 10.0 mi SE 12.7 mph - N/A   Clear
5:15 AM 33.8 °F 25.3 °F 21.2 °F 60% 30.13 in 10.0 mi SE 11.5 mph 17.3 mph N/A   Clear
5:55 AM 32.0 °F 23.0 °F 21.2 °F 64% 30.14 in 10.0 mi SSE 11.5 mph - N/A   Clear
6:15 AM 32.0 °F 22.5 °F 21.2 °F 64% 30.14 in 10.0 mi SSE 12.7 mph - N/A   Clear
6:35 AM 32.0 °F 23.0 °F 21.2 °F 64% 30.14 in 10.0 mi SE 11.5 mph - N/A   Clear
6:55 AM 32.0 °F 24.2 °F 21.2 °F 64% 30.16 in 10.0 mi SE 9.2 mph - N/A   Clear
7:15 AM 32.0 °F 24.8 °F 21.2 °F 64% 30.16 in 10.0 mi SE 8.1 mph - N/A   Clear
7:35 AM 32.0 °F 24.2 °F 21.2 °F 64% 30.16 in 10.0 mi SE 9.2 mph - N/A   Clear
7:55 AM 32.0 °F 24.2 °F 23.0 °F 69% 30.17 in 10.0 mi SE 9.2 mph - N/A   Clear
8:15 AM 33.8 °F 26.4 °F 23.0 °F 65% 30.17 in 10.0 mi SE 9.2 mph - N/A   Clear
8:35 AM 35.6 °F 28.6 °F 23.0 °F 60% 30.17 in 10.0 mi SSE 9.2 mph - N/A   Clear
8:55 AM 37.4 °F 29.3 °F 23.0 °F 56% 30.17 in 10.0 mi SSE 12.7 mph - N/A   Clear
9:15 AM 39.2 °F 31.6 °F 23.0 °F 52% 30.17 in 10.0 mi SSE 12.7 mph - N/A   Clear
9:55 AM 44.6 °F 38.4 °F 23.0 °F 43% 30.18 in 10.0 mi South 12.7 mph - N/A   Clear
10:15 AM 44.6 °F 38.4 °F 23.0 °F 43% 30.19 in 10.0 mi South 12.7 mph - N/A   Clear
10:35 AM 46.4 °F 41.1 °F 23.0 °F 40% 30.19 in 10.0 mi South 11.5 mph - N/A   Clear
10:55 AM 50.0 °F - 24.8 °F 37% 30.19 in 10.0 mi South 8.1 mph - N/A   Clear
11:15 AM 53.6 °F - 24.8 °F 33% 30.18 in 10.0 mi South 13.8 mph - N/A   Clear
11:35 AM 53.6 °F - 24.8 °F 33% 30.17 in 10.0 mi SSW 11.5 mph - N/A   Clear
11:55 AM 55.4 °F - 24.8 °F 31% 30.16 in 10.0 mi South 13.8 mph - N/A   Clear
12:15 PM 57.2 °F - 26.6 °F 31% 30.15 in 10.0 mi SSW 15.0 mph - N/A   Clear
12:35 PM 59.0 °F - 26.6 °F 29% 30.14 in 10.0 mi SSW 13.8 mph 18.4 mph N/A   Clear
12:55 PM 60.8 °F - 26.6 °F 27% 30.13 in 10.0 mi South 15.0 mph - N/A   Clear
1:15 PM 60.8 °F - 26.6 °F 27% 30.11 in 10.0 mi South 13.8 mph 17.3 mph N/A   Clear
1:35 PM 62.6 °F - 26.6 °F 26% 30.10 in 10.0 mi South 13.8 mph - N/A   Clear
1:55 PM 62.6 °F - 26.6 °F 26% 30.09 in 10.0 mi South 15.0 mph - N/A   Clear
2:15 PM 64.4 °F - 26.6 °F 24% 30.09 in 10.0 mi South 15.0 mph - N/A   Clear
2:35 PM 64.4 °F - 26.6 °F 24% 30.08 in 10.0 mi South 16.1 mph - N/A   Clear
2:55 PM 64.4 °F - 26.6 °F 24% 30.08 in 10.0 mi South 18.4 mph 21.9 mph N/A   Clear
3:15 PM 64.4 °F - 26.6 °F 24% 30.07 in 10.0 mi SSE 17.3 mph 23.0 mph N/A   Clear
3:35 PM 62.6 °F - 26.6 °F 26% 30.07 in 10.0 mi SSE 16.1 mph - N/A   Clear
3:55 PM 62.6 °F - 26.6 °F 26% 30.07 in 10.0 mi South 16.1 mph 21.9 mph N/A   Clear
5:35 PM 55.4 °F - 26.6 °F 33% 30.08 in 10.0 mi SSE 12.7 mph - N/A   Clear
6:15 PM 53.6 °F - 26.6 °F 35% 30.08 in 10.0 mi SE 11.5 mph - N/A   Clear
6:55 PM 50.0 °F - 26.6 °F 40% 30.08 in 10.0 mi ESE 9.2 mph - N/A   Clear
7:15 PM 50.0 °F - 28.4 °F 43% 30.08 in 10.0 mi ESE 10.4 mph - N/A   Clear
7:55 PM 50.0 °F - 30.2 °F 47% 30.09 in 10.0 mi SE 12.7 mph - N/A   Clear
8:15 PM 50.0 °F - 30.2 °F 47% 30.09 in 10.0 mi SE 13.8 mph - N/A   Clear
8:35 PM 50.0 °F - 30.2 °F 47% 30.09 in 10.0 mi SE 11.5 mph - N/A   Clear
8:55 PM 46.4 °F 41.5 °F 30.2 °F 53% 30.09 in 10.0 mi ESE 10.4 mph - N/A   Clear
9:15 PM 46.4 °F 41.1 °F 30.2 °F 53% 30.09 in 10.0 mi ESE 11.5 mph - N/A   Clear
9:35 PM 46.4 °F 41.1 °F 32.0 °F 57% 30.09 in 10.0 mi SE 11.5 mph - N/A   Clear
9:55 PM 46.4 °F 41.9 °F 32.0 °F 57% 30.09 in 10.0 mi SE 9.2 mph - N/A   Clear
10:15 PM 44.6 °F 39.7 °F 32.0 °F 61% 30.10 in 10.0 mi ESE 9.2 mph - N/A   Clear
10:35 PM 46.4 °F 41.1 °F 32.0 °F 57% 30.10 in 10.0 mi ESE 11.5 mph - N/A   Clear
10:55 PM 46.4 °F 41.9 °F 32.0 °F 57% 30.10 in 10.0 mi ESE 9.2 mph - N/A   Clear
11:15 PM 46.4 °F 41.9 °F 33.8 °F 62% 30.10 in 10.0 mi SE 9.2 mph - N/A   Clear
11:55 PM 44.6 °F 41.4 °F 33.8 °F 66% 30.10 in 10.0 mi SE 5.8 mph - N/A   Clear